Location: Howard City Library
(37.4684°N, 96.2639°W)
Time: 10:37:04
(UTC+00:00)

CZ-4C R/B - Pass Details

Date: 18 February 2020
Orbit: 642 x 1360 km, 63.4° (Epoch: 29 March)

Event Time Altitude Azimuth Distance (km) Brightness Sun altitude
Exits shadow 11:02:51 12° 344° (NNW) 2,346 4.4 -26.1°
Drops below altitude 10° 11:04:14 10° 357° (N) 2,571 4.7 -25.9°
Sets 11:08:35 0° 23° (NNE) 3,702 5.9 -25.0°
